SV2JU-2 Weather Reports


time (UTC)temp
F
wind
direction
speed
knots
gust
knots
rain 1hr
in
rain 24hr
in
rain mn
in
humidity
%
barometer
mb
20260504021703 53 0 0.0 0.0 0.00 0.00 0.00 23 1018.0
20260504020432 53 0 0.0 0.0 0.00 0.00 0.00 23 1018.0
20260504015203 53 0 0.0 0.0 0.00 0.00 0.00 23 1018.0
20260504013932 53 0 0.0 0.0 0.00 0.00 0.00 24 1018.0
20260504012702 52 0 0.0 0.0 0.00 0.00 0.00 25 1018.0
20260504011432 53 0 0.0 0.0 0.00 0.00 0.00 24 1018.0
20260504010202 53 0 0.0 0.0 0.00 0.00 0.00 23 1018.0
20260504004932 53 0 0.0 0.0 0.00 0.00 0.00 23 1018.0
20260504003702 53 0 0.0 0.0 0.00 0.00 0.00 22 1018.0
20260504002431 54 0 0.0 0.0 0.00 0.00 0.00 19 1018.0
20260504001202 54 0 0.0 0.0 0.00 0.00 0.00 19 1018.0
20260503235932 54 0 0.0 0.0 0.00 0.00 0.00 19 1018.0
20260503234703 54 32 0.0 1.7 0.00 0.00 0.00 19 1018.0
20260503233432 54 32 0.0 1.7 0.00 0.00 0.00 19 1018.0
20260503232205 54 15 0.0 1.7 0.00 0.00 0.00 19 1018.0
20260503230935 54 10 0.9 1.7 0.00 0.00 0.00 19 1018.0
20260503225704 54 0 0.0 0.0 0.00 0.00 0.00 19 1018.0
20260503220702 55 0 0.0 0.0 0.00 0.00 0.00 17 1018.0
20260503215431 55 0 0.0 0.0 0.00 0.00 0.00 17 1018.0
20260503214202 55 0 0.0 0.0 0.00 0.00 0.00 16 1018.0
20260503212931 56 0 0.0 0.0 0.00 0.00 0.00 15 1018.0
20260503211702 56 0 0.0 0.0 0.00 0.00 0.00 15 1018.0
20260503210431 56 0 0.0 0.0 0.00 0.00 0.00 16 1018.0
20260503205202 56 0 0.0 0.0 0.00 0.00 0.00 16 1018.0
20260503203931 56 0 0.0 0.0 0.00 0.00 0.00 15 1018.0
20260503202702 56 156 0.9 2.6 0.00 0.00 0.00 14 1018.0
20260503201431 56 0 0.0 0.0 0.00 0.00 0.00 13 1018.0
20260503200202 56 0 0.0 0.0 0.00 0.00 0.00 14 1018.0
20260503194931 56 0 0.0 0.0 0.00 0.00 0.00 16 1018.0
20260503193702 56 0 0.0 0.0 0.00 0.00 0.00 16 1018.0
20260503192431 57 0 0.0 0.0 0.00 0.00 0.00 15 1018.0
20260503191202 57 0 0.0 0.0 0.00 0.00 0.00 16 1018.0
20260503185931 57 0 0.0 0.0 0.00 0.00 0.00 15 1018.0
20260503184702 57 0 0.0 0.0 0.00 0.00 0.00 13 1018.0
20260503183431 58 0 0.0 0.0 0.00 0.00 0.00 12 1017.0
20260503182202 58 159 0.0 2.6 0.00 0.00 0.00 11 1017.0
20260503180931 59 22 0.9 4.3 0.00 0.00 0.00 9 1017.0
20260503175702 59 22 2.6 6.1 0.00 0.00 0.00 9 1017.0
20260503174431 59 23 0.0 2.6 0.00 0.00 0.00 8 1017.0
20260503173202 59 8 0.0 1.7 0.00 0.00 0.00 9 1017.0
20260503171931 60 14 0.0 1.7 0.00 0.00 0.00 9 1017.0
20260503170702 60 15 1.7 4.3 0.00 0.00 0.00 8 1017.0
20260503150201 62 356 1.7 4.3 0.00 0.00 0.00 8 1016.0
20260503130707 60 252 3.5 6.1 0.00 0.00 0.00 16 1017.0
20260503110208 59 243 2.6 5.2 0.00 0.00 0.00 19 1018.0
20260503080707 55 17 2.6 6.1 0.00 0.00 0.00 22 1019.0
20260503072936 54 14 4.3 7.0 0.00 0.00 0.00 26 1018.0
20260503071707 54 15 3.5 7.0 0.00 0.00 0.00 26 1018.0
20260503070436 54 16 3.5 7.0 0.00 0.03 0.00 25 1018.0
20260503054936 56 16 0.9 5.2 0.00 0.03 0.00 40 1018.0
20260503053706 56 271 0.0 3.5 0.00 0.03 0.00 46 1018.0
20260503052435 53 0 0.0 0.0 0.00 0.03 0.00 48 1018.0
20260503045935 52 0 0.0 0.0 0.00 0.03 0.00 48 1017.0
20260503044708 52 0 0.0 0.0 0.00 0.03 0.00 48 1017.0
20260503043435 51 0 0.0 0.0 0.00 0.03 0.00 48 1017.0
20260503042207 52 283 0.0 1.7 0.00 0.03 0.00 47 1017.0
20260503040935 51 0 0.0 0.0 0.00 0.03 0.00 46 1017.0
20260503035706 51 18 0.0 2.6 0.00 0.03 0.00 43 1017.0
20260503034435 50 11 0.9 3.5 0.00 0.03 0.00 43 1017.0
20260503031935 50 19 0.0 1.7 0.00 0.03 0.00 47 1017.0
20260503030706 50 15 0.9 4.3 0.00 0.03 0.00 47 1017.0
20260503025435 50 26 0.0 2.6 0.00 0.03 0.00 47 1017.0
20260503024206 50 17 1.7 6.1 0.00 0.03 0.00 47 1017.0
20260503022935 50 4 0.0 1.7 0.00 0.03 0.00 47 1017.0